EW5035 Weather Reports


Display with metric or nautical units.
time (UTC)temp
F
wind
direction
speed
MPH
gust
MPH
rain 1hr
in
rain 24hr
in
rain mn
in
humidity
%
barometer
mb
20260901034036 67 0 0.0 0.0 0.00 0.00 0.00 27 1007.7
20260901033533 68 0 0.0 1.0 0.00 0.00 0.00 26 1007.9
20260901033049 68 0 0.0 1.0 0.00 0.00 0.00 26 1007.8
20260901032535 68 0 0.0 0.0 0.00 0.00 0.00 25 1007.9
20260901032035 69 0 0.0 0.0 0.00 0.00 0.00 25 1007.8
20260901031552 69 0 0.0 0.0 0.00 0.00 0.00 25 1007.8
20260901031038 70 0 0.0 0.0 0.00 0.00 0.00 24 1007.9
20260901030533 71 0 0.0 0.0 0.00 0.00 0.00 24 1007.9
20260901030054 72 0 0.0 0.0 0.00 0.00 0.00 23 1007.9
20260901025531 73 0 0.0 0.0 0.00 0.00 0.00 22 1007.8
20260901025034 74 0 0.0 0.0 0.00 0.00 0.00 22 1007.8
20260901024553 75 0 0.0 1.0 0.00 0.00 0.00 22 1007.8
20260901024033 75 0 0.0 3.0 0.00 0.00 0.00 21 1007.7
20260901023531 76 0 0.0 3.0 0.00 0.00 0.00 21 1007.9
20260901023052 77 0 0.0 4.0 0.00 0.00 0.00 20 1007.8
20260901022533 78 0 2.0 4.0 0.00 0.00 0.00 20 1007.9
20260901022033 79 40 3.0 4.0 0.00 0.00 0.00 19 1007.9
20260901021556 80 40 3.0 6.0 0.00 0.00 0.00 18 1008.0
20260901021035 82 40 2.0 6.0 0.00 0.00 0.00 17 1008.0
20260901020533 83 40 4.0 6.0 0.00 0.00 0.00 17 1008.1
20260901020059 83 40 3.0 6.0 0.00 0.00 0.00 17 1008.1
20260901015538 84 40 3.0 6.0 0.00 0.00 0.00 17 1008.1
20260901015036 85 40 4.0 6.0 0.00 0.00 0.00 17 1008.1
20260901014554 85 40 3.0 7.0 0.00 0.00 0.00 16 1008.1
20260901014035 86 40 3.0 9.0 0.00 0.00 0.00 16 1008.2
20260901013536 86 40 5.0 9.0 0.00 0.00 0.00 16 1008.1
20260901013102 86 40 6.0 10.0 0.00 0.00 0.00 16 1008.1
20260901012535 86 40 5.0 10.0 0.00 0.00 0.00 16 1008.2
20260901012035 86 40 6.0 10.0 0.00 0.00 0.00 16 1008.1
20260901011559 87 40 6.0 12.0 0.00 0.00 0.00 15 1008.2
20260901011035 87 40 9.0 12.0 0.00 0.00 0.00 15 1008.2
20260901010535 87 49 5.0 10.0 0.00 0.00 0.00 15 1008.3
20260901010104 87 51 3.0 7.0 0.00 0.00 0.00 15 1008.5
20260901005535 87 51 3.0 12.0 0.00 0.00 0.00 15 1008.6
20260901005035 87 51 6.0 12.0 0.00 0.00 0.00 15 1008.5
20260901004556 88 51 1.0 9.0 0.00 0.00 0.00 15 1008.7
20260901004037 88 51 5.0 9.0 0.00 0.00 0.00 14 1008.7
20260901003539 88 51 3.0 7.0 0.00 0.00 0.00 15 1008.7
20260901003052 88 51 0.0 5.0 0.00 0.00 0.00 14 1008.7
20260901002540 88 51 3.0 6.0 0.00 0.00 0.00 14 1008.7
20260901002037 88 0 1.0 6.0 0.00 0.00 0.00 15 1008.7
20260901001549 88 51 4.0 6.0 0.00 0.00 0.00 15 1008.8
20260901001039 88 53 0.0 7.0 0.00 0.00 0.00 14 1008.8
20260901000535 88 53 1.0 7.0 0.00 0.00 0.00 14 1008.9
20260901000105 89 53 3.0 7.0 0.00 0.00 0.00 14 1009.0
20260831235540 89 54 0.0 5.0 0.00 0.00 0.00 14 1009.2
20260831235035 89 54 3.0 5.0 0.00 0.00 0.00 14 1009.1
20260831234552 89 0 1.0 9.0 0.00 0.00 0.00 14 1009.3
20260831234035 88 54 2.0 9.0 0.00 0.00 0.00 14 1009.3
20260831233536 88 54 1.0 9.0 0.00 0.00 0.00 14 1009.3
20260831233052 87 0 4.0 9.0 0.00 0.00 0.00 14 1009.5
20260831232535 87 54 3.0 9.0 0.00 0.00 0.00 14 1009.5
20260831232037 87 51 3.0 10.0 0.00 0.00 0.00 14 1009.7
20260831231550 87 51 4.0 10.0 0.00 0.00 0.00 15 1009.8
20260831231035 87 53 4.0 9.0 0.00 0.00 0.00 15 1009.8
20260831230534 87 61 2.0 6.0 0.00 0.00 0.00 15 1010.0
20260831230059 87 61 2.0 9.0 0.00 0.00 0.00 16 1009.9
20260831225536 87 0 4.0 9.0 0.00 0.00 0.00 16 1009.9
20260831225038 87 61 3.0 8.0 0.00 0.00 0.00 16 1010.0
20260831224555 87 61 2.0 8.0 0.00 0.00 0.00 16 1010.1
20260831224036 86 61 1.0 8.0 0.00 0.00 0.00 16 1010.2
20260831223536 86 61 4.0 9.0 0.00 0.00 0.00 16 1010.3
20260831223059 86 61 5.0 11.0 0.00 0.00 0.00 16 1010.3
20260831222535 86 57 2.0 11.0 0.00 0.00 0.00 16 1010.4
20260831222036 86 57 3.0 11.0 0.00 0.00 0.00 16 1010.6
20260831221552 85 84 6.0 11.0 0.00 0.00 0.00 16 1010.6
20260831221036 85 81 5.0 10.0 0.00 0.00 0.00 17 1010.7
20260831220536 86 66 3.0 10.0 0.00 0.00 0.00 17 1010.6
20260831220059 85 66 5.0 10.0 0.00 0.00 0.00 17 1010.8
20260831215536 86 66 3.0 9.0 0.00 0.00 0.00 17 1010.8
20260831215035 86 0 1.0 8.0 0.00 0.00 0.00 17 1010.9
20260831214558 85 65 1.0 8.0 0.00 0.00 0.00 17 1011.0
20260831214036 85 66 2.0 8.0 0.00 0.00 0.00 17 1011.1
20260831213536 85 65 2.0 6.0 0.00 0.00 0.00 17 1011.2
20260831213054 85 65 2.0 9.0 0.00 0.00 0.00 18 1011.3
20260831212536 85 65 3.0 9.0 0.00 0.00 0.00 17 1011.2
20260831212040 85 65 3.0 10.0 0.00 0.00 0.00 18 1011.4
20260831211558 84 65 5.0 11.0 0.00 0.00 0.00 18 1011.3
20260831211035 84 65 3.0 11.0 0.00 0.00 0.00 18 1011.4
20260831210535 83 65 7.0 11.0 0.00 0.00 0.00 18 1011.3
20260831210053 84 65 5.0 9.0 0.00 0.00 0.00 18 1011.4
20260831205536 83 65 4.0 11.0 0.00 0.00 0.00 19 1011.5
20260831205036 82 66 5.0 11.0 0.00 0.00 0.00 19 1011.6
20260831204551 82 65 4.0 10.0 0.00 0.00 0.00 19 1011.6
20260831204036 82 65 3.0 6.0 0.00 0.00 0.00 19 1011.7
20260831203535 82 65 1.0 6.0 0.00 0.00 0.00 20 1011.8
20260831203048 82 65 2.0 9.0 0.00 0.00 0.00 20 1011.9
20260831202535 82 65 3.0 10.0 0.00 0.00 0.00 20 1012.0
20260831202039 81 65 3.0 10.0 0.00 0.00 0.00 20 1012.1
20260831201558 81 66 5.0 9.0 0.00 0.00 0.00 20 1012.2
20260831201039 81 66 2.0 6.0 0.00 0.00 0.00 21 1012.2
20260831200535 81 65 1.0 5.0 0.00 0.00 0.00 20 1012.4
20260831200100 80 65 0.0 9.0 0.00 0.00 0.00 20 1012.6
20260831195537 80 65 3.0 9.0 0.00 0.00 0.00 21 1012.8
20260831195032 79 65 1.0 8.0 0.00 0.00 0.00 21 1012.8
20260831194617 79 65 2.0 10.0 0.00 0.00 0.00 21 1012.8
20260831194038 79 65 6.0 10.0 0.00 0.00 0.00 21 1012.9
20260831193531 79 65 2.0 13.0 0.00 0.00 0.00 22 1012.9
20260831193051 78 65 4.0 13.0 0.00 0.00 0.00 23 1012.8
20260831192534 78 65 7.0 13.0 0.00 0.00 0.00 22 1013.1
20260831192033 78 65 4.0 9.0 0.00 0.00 0.00 23 1013.1
20260831191551 78 66 3.0 8.0 0.00 0.00 0.00 23 1013.4
20260831191037 77 0 2.0 9.0 0.00 0.00 0.00 25 1013.6
20260831190533 77 65 4.0 9.0 0.00 0.00 0.00 25 1013.6
20260831190101 77 65 3.0 9.0 0.00 0.00 0.00 26 1013.7
20260831185532 76 65 6.0 10.0 0.00 0.00 0.00 27 1013.7
20260831185032 76 65 5.0 10.0 0.00 0.00 0.00 28 1013.9
20260831184555 75 65 3.0 9.0 0.00 0.00 0.00 28 1014.0
20260831184034 75 0 4.0 12.0 0.00 0.00 0.00 29 1014.1
20260831183534 75 65 4.0 12.0 0.00 0.00 0.00 29 1014.2
20260831183101 75 65 7.0 12.0 0.00 0.00 0.00 29 1014.2
20260831182534 74 65 4.0 11.0 0.00 0.00 0.00 30 1014.3
20260831182037 74 65 7.0 11.0 0.00 0.00 0.00 30 1014.2
20260831181559 73 65 6.0 11.0 0.00 0.00 0.00 31 1014.3
20260831181033 73 65 6.0 14.0 0.00 0.00 0.00 32 1014.4
20260831180531 72 65 8.0 14.0 0.00 0.00 0.00 32 1014.5
20260831180100 72 73 7.0 12.0 0.00 0.00 0.00 32 1014.5
20260831175533 72 90 6.0 12.0 0.00 0.00 0.00 32 1014.5
20260831175034 72 97 7.0 11.0 0.00 0.00 0.00 33 1014.5
20260831174553 71 97 5.0 11.0 0.00 0.00 0.00 33 1014.6
20260831174034 71 97 7.0 11.0 0.00 0.00 0.00 33 1014.6
20260831173536 71 97 7.0 10.0 0.00 0.00 0.00 33 1014.7
20260831173100 71 97 5.0 9.0 0.00 0.00 0.00 34 1014.7
20260831172534 70 97 4.0 9.0 0.00 0.00 0.00 34 1014.7
20260831172033 70 97 3.0 8.0 0.00 0.00 0.00 35 1014.9
20260831171558 69 97 3.0 8.0 0.00 0.00 0.00 36 1015.1
20260831171031 69 97 5.0 8.0 0.00 0.00 0.00 35 1015.0
20260831170531 69 97 1.0 8.0 0.00 0.00 0.00 36 1015.1
20260831170055 68 0 4.0 9.0 0.00 0.00 0.00 36 1015.0
20260831165534 68 97 5.0 9.0 0.00 0.00 0.00 37 1015.0
20260831165033 67 97 4.0 8.0 0.00 0.00 0.00 37 1015.0
20260831164552 67 97 3.0 7.0 0.00 0.00 0.00 37 1015.1
20260831164031 67 97 3.0 7.0 0.00 0.00 0.00 38 1015.1
20260831163531 66 97 3.0 8.0 0.00 0.00 0.00 38 1015.0
20260831163049 66 97 5.0 8.0 0.00 0.00 0.00 38 1015.0
20260831162534 65 97 3.0 10.0 0.00 0.00 0.00 39 1015.2
20260831162030 65 97 4.0 12.0 0.00 0.00 0.00 40 1015.1
20260831161605 64 97 7.0 12.0 0.00 0.00 0.00 40 1015.1
20260831161034 64 103 7.0 11.0 0.00 0.00 0.00 41 1015.2
20260831160531 63 104 5.0 8.0 0.00 0.00 0.00 41 1015.2
20260831160055 63 104 4.0 10.0 0.00 0.00 0.00 42 1015.4
20260831155532 62 104 4.0 10.0 0.00 0.00 0.00 42 1015.2
20260831155034 61 104 6.0 10.0 0.00 0.00 0.00 43 1015.4
20260831154619 61 104 4.0 11.0 0.00 0.00 0.00 43 1015.4
20260831154032 61 104 7.0 11.0 0.00 0.00 0.00 43 1015.4
20260831153534 61 121 5.0 11.0 0.00 0.00 0.00 43 1015.3
20260831153051 61 212 3.0 7.0 0.00 0.00 0.00 43 1015.4
20260831152537 60 212 3.0 7.0 0.00 0.00 0.00 44 1015.5
20260831152033 60 212 4.0 7.0 0.00 0.00 0.00 44 1015.4
20260831151550 59 212 0.0 7.0 0.00 0.00 0.00 46 1015.5
20260831151030 58 212 2.0 7.0 0.00 0.00 0.00 47 1015.5
20260831150532 58 212 4.0 7.0 0.00 0.00 0.00 47 1015.3
20260831150056 57 212 4.0 8.0 0.00 0.00 0.00 48 1015.1
20260831145530 56 212 3.0 8.0 0.00 0.00 0.00 49 1015.1
20260831145033 56 212 4.0 8.0 0.00 0.00 0.00 49 1015.2
20260831144558 55 212 4.0 6.0 0.00 0.00 0.00 50 1015.1
20260831144034 55 212 4.0 7.0 0.00 0.00 0.00 50 1015.1
20260831143535 55 212 4.0 7.0 0.00 0.00 0.00 50 1015.1
20260831143054 55 212 4.0 7.0 0.00 0.00 0.00 50 1015.0
20260831142534 54 212 2.0 6.0 0.00 0.00 0.00 51 1015.1
20260831142033 54 212 2.0 5.0 0.00 0.00 0.00 52 1015.0
20260831141600 54 212 2.0 5.0 0.00 0.00 0.00 53 1015.0
20260831141031 54 212 3.0 5.0 0.00 0.00 0.00 54 1015.0
20260831140535 53 212 2.0 4.0 0.00 0.00 0.00 55 1015.0
20260831140056 52 0 0.0 3.0 0.00 0.00 0.00 55 1014.9
20260831135534 52 0 0.0 5.0 0.00 0.00 0.00 55 1015.0
20260831135034 52 212 2.0 5.0 0.00 0.00 0.00 55 1015.0
20260831134552 52 212 3.0 5.0 0.00 0.00 0.00 54 1015.0
20260831134033 52 212 2.0 4.0 0.00 0.00 0.00 55 1015.0
20260831133533 51 212 0.0 3.0 0.00 0.00 0.00 55 1015.1
20260831133050 51 0 0.0 3.0 0.00 0.00 0.00 55 1015.0
20260831132533 51 212 1.0 3.0 0.00 0.00 0.00 55 1015.0
20260831132033 52 0 0.0 3.0 0.00 0.00 0.00 55 1015.0
20260831131554 52 212 0.0 4.0 0.00 0.00 0.00 55 1015.0
20260831131034 51 212 1.0 4.0 0.00 0.00 0.00 55 1014.9
20260831130531 51 212 2.0 4.0 0.00 0.00 0.00 56 1014.8
20260831130110 51 212 3.0 5.0 0.00 0.00 0.00 57 1014.9
20260831125531 51 0 0.0 5.0 0.00 0.00 0.00 57 1014.7
20260831125033 51 212 3.0 5.0 0.00 0.00 0.00 57 1014.9
20260831124552 50 212 1.0 3.0 0.00 0.00 0.00 58 1014.8
20260831124033 50 212 1.0 3.0 0.00 0.00 0.00 58 1014.9
20260831123534 50 0 0.0 3.0 0.00 0.00 0.00 57 1014.9
20260831123052 51 0 1.0 4.0 0.00 0.00 0.00 57 1015.0
20260831122533 51 0 2.0 4.0 0.00 0.00 0.00 56 1014.9
20260831122032 52 212 3.0 4.0 0.00 0.00 0.00 55 1014.9
20260831121547 52 212 2.0 4.0 0.00 0.00 0.00 57 1014.9
20260831121032 52 0 0.0 0.0 0.00 0.00 0.00 57 1014.9
20260831120530 52 0 0.0 0.0 0.00 0.00 0.00 56 1014.9
20260831120053 52 0 0.0 3.0 0.00 0.00 0.00 56 1014.9
20260831115530 52 0 0.0 3.0 0.00 0.00 0.00 58 1015.1
20260831115034 51 212 2.0 3.0 0.00 0.00 0.00 60 1015.1
20260831114551 50 0 0.0 0.0 0.00 0.00 0.00 58 1015.1
20260831114034 50 0 0.0 0.0 0.00 0.00 0.00 58 1015.0
20260831113534 50 0 0.0 0.0 0.00 0.00 0.00 58 1015.0
20260831113052 51 0 0.0 0.0 0.00 0.00 0.00 57 1015.0
20260831112534 51 0 0.0 0.0 0.00 0.00 0.00 58 1014.9
20260831112031 51 0 0.0 0.0 0.00 0.00 0.00 57 1014.9
20260831111601 51 0 0.0 0.0 0.00 0.00 0.00 57 1015.1
20260831111034 51 0 0.0 0.0 0.00 0.00 0.00 58 1015.0
20260831110531 51 0 0.0 0.0 0.00 0.00 0.00 57 1015.0
20260831110052 51 0 0.0 0.0 0.00 0.00 0.00 58 1015.1
20260831105534 51 0 0.0 0.0 0.00 0.00 0.00 58 1015.0
20260831105031 50 0 0.0 0.0 0.00 0.00 0.00 57 1015.1
20260831104553 50 0 0.0 0.0 0.00 0.00 0.00 57 1015.1
20260831104034 51 0 0.0 0.0 0.00 0.00 0.00 57 1015.1
20260831103532 51 0 0.0 0.0 0.00 0.00 0.00 57 1015.1
20260831103050 51 0 0.0 0.0 0.00 0.00 0.00 56 1015.1
20260831102534 51 0 0.0 0.0 0.00 0.00 0.00 56 1015.2
20260831102031 51 0 0.0 0.0 0.00 0.00 0.00 56 1015.1
20260831101559 51 0 0.0 0.0 0.00 0.00 0.00 56 1015.2
20260831101034 51 0 0.0 0.0 0.00 0.00 0.00 56 1015.2
20260831100534 50 0 0.0 0.0 0.00 0.00 0.00 56 1015.3
20260831100052 51 0 0.0 0.0 0.00 0.00 0.00 56 1015.4
20260831095532 51 0 0.0 0.0 0.00 0.00 0.00 56 1015.4
20260831095032 51 0 0.0 0.0 0.00 0.00 0.00 56 1015.4
20260831094551 51 0 0.0 1.0 0.00 0.00 0.00 56 1015.4
20260831094031 51 0 0.0 1.0 0.00 0.00 0.00 55 1015.4
20260831093532 51 0 0.0 0.0 0.00 0.00 0.00 56 1015.4
20260831093051 50 0 0.0 0.0 0.00 0.00 0.00 56 1015.4
20260831092533 50 0 0.0 0.0 0.00 0.00 0.00 56 1015.4
20260831092033 50 0 0.0 0.0 0.00 0.00 0.00 56 1015.5
20260831091608 50 0 0.0 0.0 0.00 0.00 0.00 56 1015.5
20260831091031 50 0 0.0 0.0 0.00 0.00 0.00 56 1015.5
20260831090531 50 0 0.0 0.0 0.00 0.00 0.00 56 1015.6
20260831090051 50 0 0.0 0.0 0.00 0.00 0.00 56 1015.7
20260831085531 50 0 0.0 1.0 0.00 0.00 0.00 56 1015.7
20260831085031 50 0 0.0 1.0 0.00 0.00 0.00 56 1015.6
20260831084553 50 0 0.0 2.0 0.00 0.00 0.00 56 1015.6
20260831084034 50 0 0.0 2.0 0.00 0.00 0.00 57 1015.7
20260831083534 50 0 0.0 2.0 0.00 0.00 0.00 57 1015.6
20260831083101 50 0 0.0 3.0 0.00 0.00 0.00 57 1015.7
20260831082537 50 0 1.0 3.0 0.00 0.00 0.00 57 1015.7
20260831082034 50 212 1.0 3.0 0.00 0.00 0.00 57 1015.6
20260831081554 50 0 0.0 4.0 0.00 0.00 0.00 58 1015.6
20260831081034 50 0 0.0 4.0 0.00 0.00 0.00 57 1015.7
20260831080531 50 212 2.0 4.0 0.00 0.00 0.00 56 1015.7
20260831080052 51 212 2.0 4.0 0.00 0.00 0.00 56 1015.8
20260831075530 51 0 0.0 2.0 0.00 0.00 0.00 57 1015.7
20260831075031 51 0 0.0 3.0 0.00 0.00 0.00 57 1015.8
20260831074604 51 212 1.0 3.0 0.00 0.00 0.00 57 1015.9
20260831074031 51 0 0.0 3.0 0.00 0.00 0.00 57 1015.9
20260831073532 51 0 0.0 4.0 0.00 0.00 0.00 56 1015.9
20260831073050 51 0 2.0 4.0 0.00 0.00 0.00 56 1016.0
20260831072536 51 212 3.0 4.0 0.00 0.00 0.00 56 1015.9
20260831072034 52 0 0.0 3.0 0.00 0.00 0.00 54 1015.9
20260831071555 52 0 0.0 3.0 0.00 0.00 0.00 55 1015.9
20260831071031 52 212 1.0 4.0 0.00 0.00 0.00 55 1016.1
20260831070531 52 212 1.0 5.0 0.00 0.00 0.00 55 1016.0
20260831070105 52 212 3.0 5.0 0.00 0.00 0.00 56 1015.9
20260831065535 52 212 1.0 5.0 0.00 0.00 0.00 56 1015.9
20260831065033 52 0 0.0 5.0 0.00 0.00 0.00 55 1015.9
20260831064557 52 212 2.0 5.0 0.00 0.00 0.00 56 1015.8
20260831064032 52 212 0.0 3.0 0.00 0.00 0.00 55 1015.9
20260831063534 52 0 0.0 5.0 0.00 0.00 0.00 55 1015.8
20260831063101 51 212 0.0 5.0 0.00 0.00 0.00 55 1015.7
20260831062535 51 212 4.0 5.0 0.00 0.00 0.00 57 1015.7
20260831062032 51 212 1.0 4.0 0.00 0.00 0.00 57 1015.8
20260831061601 50 0 0.0 0.0 0.00 0.00 0.00 56 1015.8
20260831061034 50 0 0.0 1.0 0.00 0.00 0.00 55 1015.8
20260831060535 50 0 0.0 1.0 0.00 0.00 0.00 55 1015.8
20260831060059 50 0 0.0 2.0 0.00 0.00 0.00 56 1015.9
20260831055536 50 0 0.0 2.0 0.00 0.00 0.00 54 1015.8
20260831055032 50 0 0.0 2.0 0.00 0.00 0.00 55 1015.9
20260831054557 51 0 0.0 0.0 0.00 0.00 0.00 54 1015.8
20260831054033 51 0 0.0 0.0 0.00 0.00 0.00 53 1015.7
20260831053534 51 0 0.0 0.0 0.00 0.00 0.00 53 1015.8
20260831053102 51 0 0.0 2.0 0.00 0.00 0.00 52 1015.9
20260831052533 51 0 0.0 2.0 0.00 0.00 0.00 52 1016.0
20260831052031 52 212 0.0 2.0 0.00 0.00 0.00 51 1015.9
20260831051555 52 0 0.0 2.0 0.00 0.00 0.00 51 1015.9
20260831051034 52 0 0.0 2.0 0.00 0.00 0.00 52 1015.9
20260831050533 52 0 0.0 5.0 0.00 0.00 0.00 51 1016.0
20260831050103 52 0 0.0 5.0 0.00 0.00 0.00 50 1015.9
20260831045531 52 212 2.0 4.0 0.00 0.00 0.00 51 1016.0
20260831045031 52 212 0.0 1.0 0.00 0.00 0.00 50 1016.0
20260831044603 52 0 0.0 0.0 0.00 0.00 0.00 50 1016.1
20260831044033 52 0 0.0 1.0 0.00 0.00 0.00 49 1016.0
20260831043532 53 0 0.0 1.0 0.00 0.00 0.00 48 1016.1
20260831043051 53 0 0.0 0.0 0.00 0.00 0.00 48 1016.1
20260831042534 53 0 0.0 0.0 0.00 0.00 0.00 48 1016.0
20260831042031 54 0 0.0 0.0 0.00 0.00 0.00 47 1016.0
20260831041641 54 0 0.0 2.0 0.00 0.00 0.00 47 1016.0
20260831041032 54 0 0.0 4.0 0.00 0.00 0.00 46 1016.0
20260831040530 55 0 1.0 4.0 0.00 0.00 0.00 46 1016.1
20260831035535 55 0 0.0 1.0 0.00 0.00 0.00 45 1016.2
20260831035035 56 0 0.0 2.0 0.00 0.00 0.00 44 1016.2
20260831034552 56 212 0.0 5.0 0.00 0.00 0.00 44 1016.2